Fort Lauderdale, FL

4:09 PM EST on December 11, 2019 (GMT -0500)
Fort Lauderdale Executive

Weather History for KFXE - October, 2019

Change the Weather History Date:

Saturday, October 5, 2019

  Actual Average Record
Temperature  
Mean Temperature 82 °F -  
Max Temperature 88 °F 89 °F 95 °F (1986)
Min Temperature 78 °F 72 °F 66 °F (2014)
Cooling Degree Days 18    
Growing Degree Days 32 (Base 50)    
Moisture  
Dew Point 73 °F    
Average Humidity 76    
Maximum Humidity 87    
Minimum Humidity 63    
Precipitation  
Precipitation 0.06 in - - ()
Sea Level Pressure  
Sea Level Pressure 29.94 in    
Wind  
Wind Speed 9 mph ()    
Max Wind Speed 20 mph    
Max Gust Speed 25 mph    
Visibility 10.0 miles    
Events Rain    
Averages and records for this station are not official NWS values.
T = Trace of Precipitation, MM = Missing Value Source: Averaged Metar Reports

Daily Weather History Graph

Daily Weather History Graph

Search for Another Location

Airport or City:

Astronomy

Oct. 05, 2019 Rise Set
Actual Time 7:14 AM EDT 7:03 PM EDT
Civil Twilight 6:51 AM EDT 7:26 PM EDT
Nautical Twilight 6:24 AM EDT 7:52 PM EDT
Astronomical Twilight 5:58 AM EDT 8:19 PM EDT
Moon 2:08 PM EDT (10/5) 12:02 AM EDT (10/5)
Length of Visible Light 12h 34m
Length of Day
11h 48m
Waxing Crescent, 50% of the Moon is Illuminated
Oct 5
Waxing Crescent
Oct 5
First Quarter
Oct 13
Full
Oct 21
Last Quarter
Oct 27
New

Hourly Weather History & Observations

Time (EDT) Temp. Heat Index Dew Point Humidity Pressure Visibility Wind Dir Wind Speed Gust Speed Precip Events Conditions
12:53 AM 80.1 °F 83.8 °F 72.0 °F 76% 29.96 in 10.0 mi ENE 8.1 mph - N/A   Clear
1:53 AM 80.1 °F 83.8 °F 72.0 °F 76% 29.95 in 10.0 mi ENE 6.9 mph - N/A   Partly Cloudy
2:53 AM 80.1 °F 84.2 °F 73.0 °F 79% 29.93 in 10.0 mi NE 4.6 mph - N/A   Partly Cloudy
3:53 AM 79.0 °F - 73.0 °F 82% 29.91 in 10.0 mi NE 3.5 mph - N/A   Partly Cloudy
4:53 AM 78.1 °F - 73.0 °F 84% 29.91 in 10.0 mi NNE 4.6 mph - N/A   Partly Cloudy
5:53 AM 78.1 °F - 73.9 °F 87% 29.92 in 10.0 mi NE 5.8 mph - N/A   Partly Cloudy
6:53 AM 78.1 °F - 73.9 °F 87% 29.92 in 10.0 mi NNE 4.6 mph - N/A   Partly Cloudy
7:53 AM 79.0 °F - 73.9 °F 84% 29.94 in 10.0 mi NE 3.5 mph - N/A   Scattered Clouds
8:53 AM 82.0 °F 87.9 °F 73.9 °F 76% 29.96 in 10.0 mi East 11.5 mph - N/A   Scattered Clouds
9:53 AM 84.9 °F 92.1 °F 73.9 °F 69% 29.97 in 10.0 mi ENE 16.1 mph - N/A   Scattered Clouds
10:53 AM 86.0 °F 93.0 °F 73.0 °F 65% 29.99 in 10.0 mi East 17.3 mph - N/A   Scattered Clouds
11:53 AM 87.1 °F 94.5 °F 73.0 °F 63% 29.99 in 10.0 mi East 13.8 mph - N/A   Scattered Clouds
12:53 PM 84.9 °F 91.4 °F 73.0 °F 67% 29.97 in 10.0 mi ENE 18.4 mph 25.3 mph N/A   Mostly Cloudy
1:53 PM 82.0 °F 89.4 °F 75.9 °F 82% 29.95 in 10.0 mi ENE 15.0 mph - 0.06 in Rain Light Rain
2:53 PM 84.9 °F 93.3 °F 75.0 °F 72% 29.92 in 10.0 mi ENE 17.3 mph - 0.00 in   Scattered Clouds
3:53 PM 81.0 °F 86.2 °F 73.9 °F 79% 29.92 in 10.0 mi ENE 12.7 mph 21.9 mph 0.00 in Rain Light Rain
4:53 PM 84.0 °F 91.2 °F 73.9 °F 72% 29.91 in 10.0 mi ENE 19.6 mph - 0.00 in   Scattered Clouds
5:53 PM 82.9 °F 88.8 °F 73.0 °F 72% 29.91 in 10.0 mi ENE 12.7 mph 24.2 mph N/A   Scattered Clouds
6:53 PM 82.0 °F 87.4 °F 73.0 °F 74% 29.92 in 10.0 mi ENE 16.1 mph - N/A   Scattered Clouds
7:53 PM 81.0 °F 86.2 °F 73.9 °F 79% 29.93 in 10.0 mi ENE 9.2 mph - N/A   Scattered Clouds
8:53 PM 80.1 °F 83.8 °F 72.0 °F 76% 29.95 in 10.0 mi ENE 16.1 mph 23.0 mph 0.00 in   Scattered Clouds
9:53 PM 81.0 °F 85.2 °F 72.0 °F 74% 29.95 in 10.0 mi East 13.8 mph - N/A   Scattered Clouds
10:53 PM 81.0 °F 85.2 °F 72.0 °F 74% 29.96 in 10.0 mi East 13.8 mph - 0.00 in   Partly Cloudy
11:53 PM 81.0 °F 85.2 °F 72.0 °F 74% 29.95 in 10.0 mi ENE 12.7 mph - N/A   Partly Cloudy